Home > Weather > Chilliwack > Past weeks

Flag for Canada Past Weather in Chilliwack, British Columbia, Canada — Yesterday and Last 2 Weeks

Now
56 °F

Cool.


Feels Like: 56 °F
Forecast: 52 / 65 °F
Wind: 1 mph from Northeast

Location: Agassiz

Current Time: May 25, 2016 at 6:05:37 AM

Latest Report: May 25, 2016 at 5:00 AM


Visibility: N/A

Pressure: 30.04 "Hg

Humidity: 88%

Dew Point: 52 °F

Location of ChilliwackLocation

Past Weather in Chilliwack — Graph

°F

Chilliwack Temperature Yesterday

Maximum temperature yesterday: 64 °F (at 4:00 PM)
Minimum temperature yesterday: 53 °F (at 12:00 AM)
Average temperature yesterday: 58 °F

High & Low Weather Summary for the Past Weeks

 TemperatureHumidityPressure
High81 °F (May 13, 6:00 PM)99% (May 24, 12:00 AM)30.29 "Hg (May 24, 12:00 AM)
Low47 °F (May 19, 4:00 AM)20% (May 10, 5:00 PM)29.72 "Hg (May 21, 4:00 AM)
Average60 °F68%29.98 "Hg
* Reported May 10 5:00 AM — May 25 5:00 AM, Chilliwack, Weather by CustomWeather, © 2016

Note: Actual official high and low records may vary slightly from our data, if they occured in-between our weather recording intervals... More about our weather records

Advertising

Chilliwack Weather History for the Previous 24 Hours

Scroll right to see more
 ConditionsComfort  
Time TempWeatherWind HumidityBarometerVisibility
5:00 AM
Wed, May 25
56 °FCool.1 mph88%30.04 "HgN/A
4:00 AM54 °FCool.1 mph95%30.03 "HgN/A
3:00 AM57 °FCool.1 mph81%30.02 "HgN/A
2:00 AM57 °FCool.1 mph91%30.02 "HgN/A
1:00 AM57 °FCool.1 mph88%30.02 "HgN/A
12:00 AM58 °FCool.1 mph84%30.01 "HgN/A
11:00 PM
Tue, May 24
58 °FCool.No wind85%30.01 "HgN/A
10:00 PM58 °FCool.2 mph87%30.00 "HgN/A
9:00 PM59 °FCool.No wind82%29.99 "HgN/A
8:00 PM60 °FCool.1 mph80%29.98 "HgN/A
7:00 PM62 °FCool.1 mph73%29.97 "HgN/A
6:00 PM63 °FMild.3 mph68%29.97 "HgN/A
5:00 PM63 °FMild.5 mph68%29.97 "HgN/A
4:00 PM64 °FMild.6 mph69%29.97 "HgN/A
3:00 PM63 °FMild.2 mph65%29.98 "HgN/A
2:00 PM63 °FMild.3 mph62%29.98 "HgN/A
1:00 PM62 °FCool.3 mph68%29.98 "HgN/A
12:00 PM61 °FCool.3 mph68%29.97 "HgN/A
11:00 AM60 °FCool.1 mph69%29.97 "HgN/A
10:00 AM58 °FCool.1 mph82%29.96 "HgN/A
9:00 AM56 °FCool.1 mph85%29.96 "HgN/A
8:00 AM55 °FCool.1 mph91%29.95 "HgN/A
7:00 AM54 °FCool.No wind94%29.94 "HgN/A
6:00 AM54 °FCool.1 mph95%29.93 "HgN/A
Weather by CustomWeather, © 2016

See weather overviewHow to use our weather pages